Location: Hilina Pali Trail
(19.2864°N, 155.2806°W)
Time: 00:02:43
(UTC+00:00)

Daily predictions for brighter satellites

Satellite Brightness Start Highest point End
(mag) Time Altitude Azimuth Time Altitude Azimuth Time Altitude Azimuth
Cosmos 2278 Rocket 2.3 04:46:54 10° S 04:52:26 58° ESE 04:58:00 10° NNE
Aurora 2 Rocket 3.6 04:46:08 10° WSW 04:54:19 82° SSE 04:59:52 10° ENE
H-2A R/B (2) 3.0 04:55:26 10° NW 04:57:32 19° NNE 05:00:32 10° ENE
Palapa 6 Rocket 4.4 04:51:34 10° W 04:59:02 65° SSW 05:05:13 10° ESE
Geosat 4.1 04:57:17 10° NE 05:02:10 53° ESE 05:07:02 10° S
Cosmos 1937 Rocket 4.1 04:57:52 10° SSW 05:02:59 62° WNW 05:08:11 10° N
Cosmos 2297 4.5 05:01:22 10° SSE 05:06:12 29° ESE 05:11:04 10° NE
Cosmos 1707 2.9 05:03:36 10° N 05:07:23 50° E 05:11:08 10° SSE
SeaSat 1 3.5 05:05:50 10° ESE 05:09:47 25° ENE 05:13:43 10° N
BREEZE-M DEB (TANK) 4.0 05:08:48 10° S 05:10:36 14° SE 05:11:25 13° ESE
NOSS 3-4 (A) 3.9 05:03:54 10° NNW 05:11:15 79° ENE 05:18:57 10° SSE
NOSS 3-4 (C) 3.9 05:04:00 10° NNW 05:11:21 78° ENE 05:19:04 10° SSE
ATLAS 5 CENTAUR R/B 2.7 05:08:17 10° SSE 05:11:53 23° ESE 05:15:33 10° ENE
Cosmos 1766 3.2 05:09:53 10° S 05:13:42 62° E 05:17:31 10° NNE
Cosmos 1680 Rocket 4.0 05:10:48 10° NNW 05:15:58 63° WSW 05:21:06 10° S
Meteor 1-24 Rocket 4.0 05:20:21 10° N 05:25:41 45° E 05:31:12 10° SSE
Mugunghwa Rocket 4.5 05:21:51 10° SW 05:27:40 40° SSE 05:31:31 20° E
RESURS DK-1 4.1 05:31:51 10° NNE 05:33:47 16° NE 05:33:47 16° NE
Meteor 2-5 Rocket 4.1 05:31:09 10° NNW 05:36:54 72° W 05:42:46 10° S
Cosmos 1867 3.5 05:36:40 10° SSW 05:42:05 90° W 05:47:33 10° NNE
CZ-2D R/B 4.0 05:43:20 33° ENE 05:43:20 33° ENE 05:46:31 10° NNE
COSMOS 2406 3.2 05:39:25 10° NNW 05:45:08 84° WSW 05:50:49 10° SSE
Cosmos 372 Rocket 3.9 05:41:52 10° S 05:46:48 54° ESE 05:51:47 10° NNE
Cosmos 1805 3.1 05:44:39 10° S 05:48:31 89° ESE 05:52:25 10° N
Resurs 01 Rocket 1.5 05:47:59 16° SSE 05:51:28 69° ENE 05:55:51 10° N
ASC 2 Rocket 4.3 05:47:35 10° SW 05:54:37 41° SSE 05:56:07 35° SE
Spot 2 Rocket 3.4 05:52:11 13° SSE 05:56:48 73° ENE 06:01:52 10° N
ISS -2.7 05:57:35 10° WSW 06:00:40 43° NW 06:01:25 35° NNW
OAO 2 Rocket 3.2 05:59:32 10° SW 06:04:43 80° SSE 06:05:54 54° ENE
ALOS 3.3 06:00:23 10° S 06:04:49 44° W 06:09:16 10° NNW
Delta 168 3.7 06:03:54 10° WNW 06:06:54 31° NNW 06:06:54 31° NNW
Helios 1B rocket 3.3 06:12:11 10° N 06:16:10 49° WNW 06:20:07 10° SSW
SWIFT 2.7 06:13:25 10° W 06:17:07 62° WSW 06:17:07 62° WSW
CZ-3C R/B 3.1 06:17:39 10° W 06:18:01 14° W 06:18:01 14° W
Cosmos 2100 Rocket 3.8 06:16:33 10° S 06:22:47 73° E 06:29:05 10° N
H-2A R/B 4.5 06:23:35 21° SW 06:25:24 31° W 06:28:52 10° NW
Cosmos 1953 4.2 06:26:27 10° SW 06:30:01 30° W 06:33:38 10° NNW
SeaSat 1 4.4 06:44:54 19° SSW 06:47:05 25° WSW 06:51:07 10° NW
Aurora 2 Rocket 4.0 06:42:19 10° W 06:47:09 42° NW 06:47:09 42° NW
Cosmos 2061 Rocket 4.3 06:52:46 63° NW 06:52:46 63° NW 06:58:20 10° N
ATLAS 5 CENTAUR R/B 4.1 06:52:59 10° WSW 06:56:20 20° WNW 06:58:51 14° NNW
